| time (UTC) | temp F | wind direction | speed knots | gust knots | rain 1hr in | rain 24hr in | rain mn in | humidity % | barometer mb |
| 20260906092801 | 68 | 34 | 0.0 | 1.7 | 0.00 | 0.00 | 0.00 | 100 | 1016.5 |
| 20260906092301 | 68 | 257 | 0.0 | 1.7 | 0.00 | 0.00 | 0.00 | 100 | 1016.6 |
| 20260906091801 | 68 | 52 | 0.0 | 1.7 | 0.00 | 0.00 | 0.00 | 100 | 1016.6 |
| 20260906090801 | 68 | 156 | 0.0 | 1.7 | 0.00 | 0.00 | 0.00 | 100 | 1016.5 |
| 20260906090301 | 68 | 91 | 0.0 | 1.7 | 0.00 | 0.00 | 0.00 | 100 | 1016.5 |
| 20260906085801 | 68 | 168 | 0.0 | 0.9 | 0.00 | 0.00 | 0.00 | 100 | 1016.5 |
| 20260906085306 | 68 | 0 | 0.0 | 0.0 | 0.00 | 0.00 | 0.00 | 100 | 1016.5 |
| 20260906084801 | 68 | 0 | 0.0 | 0.9 | 0.00 | 0.00 | 0.00 | 100 | 1016.5 |
| 20260906084303 | 68 | 191 | 0.0 | 0.9 | 0.00 | 0.00 | 0.00 | 100 | 1016.6 |
| 20260906084021 | 68 | 0 | 0.0 | 0.9 | 0.00 | 0.00 | 0.00 | 99 | 1016.7 |
| 20260906083525 | 68 | 233 | 0.0 | 0.9 | 0.00 | 0.00 | 0.00 | 99 | 1016.6 |
| 20260906082800 | 68 | 15 | 0.0 | 0.9 | 0.00 | 0.00 | 0.00 | 99 | 1016.5 |
| 20260906082300 | 68 | 0 | 0.0 | 0.9 | 0.00 | 0.00 | 0.00 | 99 | 1016.6 |
| 20260906081800 | 68 | 0 | 0.0 | 1.7 | 0.00 | 0.00 | 0.00 | 99 | 1016.6 |
| 20260906081300 | 68 | 0 | 0.0 | 1.7 | 0.00 | 0.00 | 0.00 | 99 | 1016.6 |
| 20260906080800 | 68 | 0 | 0.9 | 2.6 | 0.00 | 0.00 | 0.00 | 99 | 1016.4 |
| 20260906080520 | 68 | 237 | 0.9 | 2.6 | 0.00 | 0.00 | 0.00 | 99 | 1016.4 |
| 20260906075800 | 68 | 199 | 0.9 | 2.6 | 0.00 | 0.00 | 0.00 | 99 | 1016.4 |
| 20260906075300 | 68 | 43 | 0.9 | 2.6 | 0.00 | 0.00 | 0.00 | 99 | 1016.3 |
| 20260906074800 | 68 | 124 | 0.0 | 1.7 | 0.00 | 0.00 | 0.00 | 99 | 1016.3 |
| 20260906074300 | 68 | 45 | 0.0 | 1.7 | 0.00 | 0.00 | 0.00 | 99 | 1016.3 |
| 20260906073800 | 68 | 0 | 0.0 | 1.7 | 0.00 | 0.00 | 0.00 | 99 | 1016.2 |
| 20260906072759 | 68 | 0 | 0.0 | 0.9 | 0.00 | 0.00 | 0.00 | 99 | 1016.3 |
| 20260906072257 | 68 | 0 | 0.0 | 0.9 | 0.00 | 0.00 | 0.00 | 99 | 1016.4 |
| 20260906071743 | 68 | 236 | 0.0 | 0.9 | 0.00 | 0.00 | 0.00 | 99 | 1016.4 |
| 20260906071502 | 68 | 262 | 0.0 | 0.9 | 0.00 | 0.00 | 0.00 | 99 | 1016.5 |
| 20260906070745 | 68 | 226 | 0.0 | 0.9 | 0.00 | 0.00 | 0.00 | 99 | 1016.5 |
| 20260906065952 | 68 | 226 | 0.0 | 0.0 | 0.00 | 0.00 | 0.00 | 99 | 1016.6 |
| 20260906064729 | 68 | 226 | 0.0 | 0.9 | 0.00 | 0.00 | 0.00 | 99 | 1016.5 |
| 20260906064231 | 68 | 226 | 0.0 | 0.9 | 0.00 | 0.00 | 0.00 | 99 | 1016.4 |
| 20260906063946 | 68 | 226 | 0.0 | 0.9 | 0.00 | 0.00 | 0.00 | 99 | 1016.4 |
| 20260906063228 | 68 | 226 | 0.0 | 0.9 | 0.00 | 0.00 | 0.00 | 99 | 1016.4 |
| 20260906062228 | 68 | 226 | 0.0 | 0.9 | 0.00 | 0.00 | 0.00 | 99 | 1016.5 |
| 20260906061728 | 68 | 226 | 0.9 | 1.7 | 0.00 | 0.00 | 0.00 | 99 | 1016.5 |
| 20260906061228 | 68 | 226 | 0.9 | 1.7 | 0.00 | 0.00 | 0.00 | 99 | 1016.6 |
| 20260906060729 | 68 | 226 | 0.0 | 0.9 | 0.00 | 0.00 | 0.00 | 99 | 1016.6 |
| 20260906060229 | 68 | 226 | 0.0 | 0.9 | 0.00 | 0.00 | 0.00 | 99 | 1016.6 |
| 20260906055729 | 68 | 226 | 0.0 | 0.9 | 0.00 | 0.00 | 0.00 | 99 | 1016.7 |
| 20260906055446 | 68 | 226 | 0.0 | 0.9 | 0.00 | 0.00 | 0.00 | 99 | 1016.8 |
| 20260906054728 | 68 | 226 | 0.0 | 0.9 | 0.00 | 0.00 | 0.00 | 99 | 1016.9 |
| 20260906054229 | 68 | 226 | 0.0 | 0.0 | 0.00 | 0.00 | 0.00 | 99 | 1017.0 |
| 20260906053729 | 68 | 226 | 0.0 | 0.0 | 0.00 | 0.00 | 0.00 | 99 | 1017.2 |
| 20260906053229 | 68 | 226 | 0.0 | 0.9 | 0.00 | 0.00 | 0.00 | 98 | 1017.4 |
| 20260906052729 | 68 | 225 | 0.0 | 0.9 | 0.00 | 0.00 | 0.00 | 98 | 1017.5 |
| 20260906052229 | 68 | 225 | 0.0 | 0.9 | 0.00 | 0.00 | 0.00 | 98 | 1017.6 |
| 20260906051729 | 68 | 226 | 0.9 | 0.9 | 0.00 | 0.00 | 0.00 | 98 | 1017.5 |
| 20260906051229 | 68 | 226 | 0.9 | 1.7 | 0.00 | 0.00 | 0.00 | 98 | 1017.5 |
| 20260906050728 | 68 | 227 | 0.9 | 1.7 | 0.00 | 0.00 | 0.00 | 98 | 1017.4 |
| 20260906050228 | 68 | 228 | 0.9 | 1.7 | 0.00 | 0.00 | 0.00 | 98 | 1017.5 |
| 20260906045946 | 68 | 226 | 0.9 | 1.7 | 0.00 | 0.00 | 0.00 | 98 | 1017.4 |
| 20260906045229 | 68 | 226 | 0.0 | 1.7 | 0.00 | 0.00 | 0.00 | 98 | 1017.4 |
| 20260906044729 | 68 | 226 | 0.0 | 0.9 | 0.00 | 0.00 | 0.00 | 98 | 1017.4 |
| 20260906044229 | 68 | 226 | 0.0 | 0.9 | 0.00 | 0.00 | 0.00 | 98 | 1017.4 |
| 20260906043729 | 68 | 225 | 0.0 | 0.9 | 0.00 | 0.00 | 0.00 | 98 | 1017.4 |
| 20260906043229 | 68 | 225 | 0.0 | 0.9 | 0.00 | 0.00 | 0.00 | 98 | 1017.4 |
| 20260906042729 | 68 | 226 | 0.9 | 1.7 | 0.00 | 0.00 | 0.00 | 98 | 1017.2 |
| 20260906042229 | 69 | 225 | 1.7 | 1.7 | 0.00 | 0.00 | 0.00 | 98 | 1017.2 |
| 20260906041728 | 69 | 228 | 0.9 | 1.7 | 0.00 | 0.00 | 0.00 | 98 | 1017.2 |
| 20260906041228 | 69 | 228 | 0.9 | 1.7 | 0.00 | 0.00 | 0.00 | 98 | 1017.2 |
| 20260906040728 | 69 | 226 | 0.9 | 1.7 | 0.00 | 0.00 | 0.00 | 98 | 1017.2 |
| 20260906040228 | 69 | 226 | 0.9 | 1.7 | 0.00 | 0.00 | 0.00 | 98 | 1017.2 |
| 20260906035729 | 69 | 226 | 0.9 | 1.7 | 0.00 | 0.00 | 0.00 | 97 | 1017.2 |
| 20260906035229 | 69 | 226 | 0.9 | 1.7 | 0.00 | 0.00 | 0.00 | 97 | 1017.4 |
| 20260906034729 | 69 | 226 | 0.9 | 1.7 | 0.00 | 0.00 | 0.00 | 98 | 1017.5 |
| 20260906034228 | 69 | 228 | 0.9 | 2.6 | 0.00 | 0.00 | 0.00 | 98 | 1017.7 |
| 20260906033728 | 69 | 226 | 0.9 | 2.6 | 0.00 | 0.00 | 0.00 | 98 | 1017.7 |
| 20260906033228 | 69 | 226 | 0.9 | 1.7 | 0.00 | 0.00 | 0.00 | 98 | 1017.7 |
| 20260906032948 | 69 | 226 | 0.9 | 3.5 | 0.00 | 0.00 | 0.00 | 98 | 1017.6 |
| 20260906032228 | 69 | 226 | 0.9 | 3.5 | 0.00 | 0.00 | 0.00 | 98 | 1017.6 |
| 20260906031729 | 69 | 36 | 0.9 | 2.6 | 0.00 | 0.00 | 0.00 | 97 | 1017.5 |
| 20260906031228 | 69 | 226 | 0.9 | 3.5 | 0.00 | 0.00 | 0.00 | 97 | 1017.4 |
| 20260906030728 | 69 | 225 | 1.7 | 3.5 | 0.00 | 0.00 | 0.00 | 97 | 1017.5 |
| 20260906030229 | 69 | 173 | 0.9 | 6.1 | 0.00 | 0.00 | 0.00 | 97 | 1017.7 |
| 20260906025950 | 69 | 0 | 0.9 | 6.1 | 0.00 | 0.00 | 0.00 | 97 | 1017.7 |
| 20260906025228 | 69 | 40 | 0.9 | 3.5 | 0.00 | 0.00 | 0.00 | 97 | 1017.7 |
| 20260906024728 | 69 | 210 | 0.9 | 5.2 | 0.00 | 0.00 | 0.00 | 97 | 1017.6 |
| 20260906024230 | 69 | 0 | 0.9 | 5.2 | 0.00 | 0.00 | 0.00 | 97 | 1017.6 |
| 20260906023729 | 69 | 230 | 0.9 | 5.2 | 0.00 | 0.00 | 0.00 | 97 | 1017.5 |
| 20260906023228 | 70 | 196 | 0.9 | 5.2 | 0.00 | 0.00 | 0.00 | 97 | 1017.5 |
| 20260906022729 | 70 | 187 | 0.9 | 5.2 | 0.00 | 0.00 | 0.00 | 97 | 1017.5 |
| 20260906022449 | 70 | 227 | 0.9 | 5.2 | 0.00 | 0.00 | 0.00 | 97 | 1017.4 |
| 20260906021729 | 70 | 226 | 0.0 | 2.6 | 0.00 | 0.00 | 0.00 | 96 | 1017.1 |
| 20260906021229 | 70 | 231 | 0.0 | 2.6 | 0.00 | 0.00 | 0.00 | 96 | 1017.4 |
| 20260906020729 | 70 | 0 | 0.0 | 2.6 | 0.00 | 0.00 | 0.00 | 96 | 1017.2 |
| 20260906020229 | 70 | 231 | 0.9 | 3.5 | 0.00 | 0.00 | 0.00 | 96 | 1017.1 |
| 20260906015729 | 70 | 18 | 0.9 | 5.2 | 0.00 | 0.00 | 0.00 | 96 | 1017.0 |
| 20260906015229 | 70 | 50 | 2.6 | 6.1 | 0.00 | 0.00 | 0.00 | 96 | 1017.0 |
| 20260906014729 | 70 | 209 | 2.6 | 6.1 | 0.00 | 0.00 | 0.00 | 95 | 1016.9 |
| 20260906014228 | 71 | 221 | 1.7 | 4.3 | 0.00 | 0.00 | 0.00 | 95 | 1017.0 |
| 20260906013729 | 71 | 263 | 0.9 | 3.5 | 0.00 | 0.00 | 0.00 | 95 | 1017.0 |
| 20260906013448 | 71 | 38 | 0.9 | 2.6 | 0.00 | 0.00 | 0.00 | 95 | 1017.0 |
| 20260906012949 | 71 | 8 | 0.9 | 3.5 | 0.00 | 0.00 | 0.00 | 95 | 1016.9 |
| 20260906012450 | 71 | 22 | 0.9 | 3.5 | 0.00 | 0.00 | 0.00 | 95 | 1016.9 |
| 20260906011952 | 71 | 41 | 0.9 | 1.7 | 0.00 | 0.00 | 0.00 | 95 | 1017.0 |
| 20260906011229 | 71 | 50 | 0.0 | 1.7 | 0.00 | 0.00 | 0.00 | 95 | 1017.0 |
| 20260906010728 | 71 | 222 | 0.9 | 1.7 | 0.00 | 0.00 | 0.00 | 94 | 1016.8 |
| 20260906010229 | 71 | 207 | 0.9 | 2.6 | 0.00 | 0.00 | 0.00 | 94 | 1016.8 |
| 20260906005728 | 72 | 54 | 0.0 | 2.6 | 0.00 | 0.00 | 0.00 | 94 | 1016.8 |
| 20260906005228 | 72 | 0 | 0.9 | 2.6 | 0.00 | 0.00 | 0.00 | 94 | 1016.8 |
| 20260906004950 | 72 | 44 | 0.9 | 3.5 | 0.00 | 0.00 | 0.00 | 94 | 1016.6 |
| 20260906004229 | 72 | 47 | 0.9 | 3.5 | 0.00 | 0.00 | 0.00 | 94 | 1016.6 |
| 20260906003729 | 72 | 38 | 0.9 | 3.5 | 0.00 | 0.00 | 0.00 | 93 | 1016.5 |
| 20260906003229 | 72 | 0 | 0.9 | 3.5 | 0.00 | 0.00 | 0.00 | 93 | 1016.4 |
| 20260906002729 | 72 | 41 | 0.0 | 2.6 | 0.00 | 0.00 | 0.00 | 93 | 1016.5 |
| 20260906001729 | 72 | 30 | 0.0 | 2.6 | 0.00 | 0.00 | 0.00 | 92 | 1016.5 |
| 20260906000729 | 72 | 53 | 0.0 | 3.5 | 0.00 | 0.00 | 0.00 | 92 | 1016.6 |
| 20260906000229 | 73 | 41 | 0.0 | 1.7 | 0.00 | 0.00 | 0.00 | 92 | 1016.6 |
| 20260905235729 | 73 | 0 | 0.0 | 1.7 | 0.00 | 0.00 | 0.00 | 92 | 1016.6 |
| 20260905235446 | 73 | 0 | 0.0 | 3.5 | 0.00 | 0.00 | 0.00 | 92 | 1016.6 |
| 20260905234728 | 73 | 33 | 0.0 | 3.5 | 0.00 | 0.00 | 0.00 | 92 | 1016.5 |
| 20260905234228 | 73 | 0 | 0.0 | 0.9 | 0.00 | 0.00 | 0.00 | 91 | 1016.5 |
| 20260905233730 | 73 | 0 | 0.0 | 1.7 | 0.00 | 0.00 | 0.00 | 91 | 1016.5 |
| 20260905233229 | 73 | 251 | 0.0 | 1.7 | 0.00 | 0.00 | 0.00 | 91 | 1016.4 |
| 20260905232230 | 73 | 45 | 0.0 | 1.7 | 0.00 | 0.00 | 0.00 | 92 | 1016.5 |
| 20260905231729 | 73 | 0 | 0.0 | 1.7 | 0.00 | 0.00 | 0.00 | 92 | 1016.4 |
| 20260905231229 | 74 | 0 | 0.0 | 0.9 | 0.00 | 0.00 | 0.00 | 92 | 1016.4 |
| 20260905230729 | 74 | 0 | 0.0 | 1.7 | 0.00 | 0.00 | 0.00 | 91 | 1016.4 |
| 20260905230229 | 74 | 0 | 0.0 | 1.7 | 0.00 | 0.00 | 0.00 | 91 | 1016.3 |
| 20260905225729 | 74 | 0 | 0.0 | 1.7 | 0.00 | 0.00 | 0.00 | 91 | 1016.3 |
| 20260905225229 | 74 | 0 | 0.0 | 0.9 | 0.00 | 0.00 | 0.00 | 90 | 1016.2 |
| 20260905224728 | 74 | 171 | 0.0 | 0.9 | 0.00 | 0.00 | 0.00 | 91 | 1016.2 |
| 20260905224228 | 74 | 0 | 0.0 | 0.9 | 0.00 | 0.00 | 0.00 | 90 | 1016.2 |
| 20260905223728 | 74 | 197 | 0.0 | 1.7 | 0.00 | 0.00 | 0.00 | 90 | 1016.3 |
| 20260905223228 | 74 | 0 | 0.0 | 1.7 | 0.00 | 0.00 | 0.00 | 90 | 1016.2 |
| 20260905222728 | 74 | 0 | 0.0 | 1.7 | 0.00 | 0.00 | 0.00 | 90 | 1016.2 |
| 20260905221950 | 74 | 3 | 0.9 | 1.7 | 0.00 | 0.00 | 0.00 | 87 | 1016.3 |
| 20260905221229 | 74 | 27 | 0.9 | 1.7 | 0.00 | 0.00 | 0.00 | 87 | 1016.3 |
| 20260905220729 | 74 | 24 | 0.0 | 1.7 | 0.00 | 0.00 | 0.00 | 90 | 1016.4 |
| 20260905220229 | 74 | 0 | 0.0 | 1.7 | 0.00 | 0.00 | 0.00 | 89 | 1016.4 |
| 20260905215729 | 74 | 0 | 0.0 | 1.7 | 0.00 | 0.00 | 0.00 | 89 | 1016.5 |
| 20260905215229 | 74 | 0 | 0.0 | 1.7 | 0.00 | 0.00 | 0.00 | 89 | 1016.6 |
| 20260905214948 | 73 | 0 | 0.0 | 1.7 | 0.00 | 0.00 | 0.00 | 90 | 1016.6 |
| 20260905214229 | 73 | 216 | 0.9 | 1.7 | 0.00 | 0.00 | 0.00 | 91 | 1016.6 |
| 20260905213729 | 73 | 82 | 0.9 | 1.7 | 0.00 | 0.00 | 0.00 | 91 | 1016.6 |
| 20260905213229 | 73 | 0 | 0.0 | 1.7 | 0.00 | 0.00 | 0.00 | 91 | 1016.7 |
| 20260905212228 | 73 | 278 | 0.9 | 1.7 | 0.00 | 0.00 | 0.00 | 89 | 1016.7 |
| 20260905211729 | 73 | 38 | 0.0 | 1.7 | 0.00 | 0.00 | 0.00 | 88 | 1016.6 |
| 20260905211228 | 73 | 0 | 0.0 | 1.7 | 0.00 | 0.00 | 0.00 | 88 | 1016.8 |
| 20260905210229 | 73 | 187 | 0.9 | 2.6 | 0.00 | 0.00 | 0.00 | 87 | 1016.8 |
| 20260905205950 | 73 | 144 | 0.9 | 2.6 | 0.00 | 0.00 | 0.00 | 86 | 1016.6 |
| 20260905205448 | 73 | 255 | 0.0 | 2.6 | 0.00 | 0.00 | 0.00 | 85 | 1016.7 |
| 20260905204728 | 74 | 211 | 0.9 | 1.7 | 0.00 | 0.00 | 0.00 | 85 | 1016.7 |
| 20260905204228 | 74 | 212 | 0.9 | 1.7 | 0.00 | 0.00 | 0.00 | 87 | 1016.8 |
| 20260905203728 | 74 | 0 | 0.0 | 2.6 | 0.00 | 0.00 | 0.00 | 87 | 1017.0 |
| 20260905203228 | 74 | 259 | 0.9 | 2.6 | 0.00 | 0.00 | 0.00 | 86 | 1017.0 |
| 20260905202728 | 75 | 25 | 1.7 | 3.5 | 0.00 | 0.00 | 0.00 | 84 | 1016.8 |
| 20260905202228 | 75 | 29 | 0.9 | 3.5 | 0.00 | 0.00 | 0.00 | 80 | 1016.8 |
| 20260905201952 | 76 | 355 | 0.0 | 1.7 | 0.00 | 0.00 | 0.00 | 80 | 1016.8 |
| 20260905201228 | 75 | 26 | 0.9 | 1.7 | 0.00 | 0.00 | 0.00 | 80 | 1017.2 |
| 20260905200728 | 75 | 0 | 0.9 | 2.6 | 0.00 | 0.00 | 0.00 | 79 | 1017.0 |
| 20260905200446 | 75 | 198 | 1.7 | 3.5 | 0.00 | 0.00 | 0.00 | 80 | 1016.8 |
| 20260905195230 | 75 | 189 | 2.6 | 4.3 | 0.00 | 0.00 | 0.00 | 81 | 1017.0 |
| 20260905194230 | 76 | 190 | 2.6 | 7.8 | 0.00 | 0.00 | 0.00 | 81 | 1017.4 |
| 20260905193951 | 77 | 206 | 3.5 | 7.8 | 0.00 | 0.00 | 0.00 | 78 | 1017.1 |
| 20260905193230 | 77 | 207 | 3.5 | 7.8 | 0.00 | 0.00 | 0.00 | 81 | 1017.6 |
| 20260905192730 | 78 | 186 | 2.6 | 3.5 | 0.00 | 0.00 | 0.00 | 79 | 1017.6 |
| 20260905192230 | 80 | 186 | 0.9 | 2.6 | 0.00 | 0.01 | 0.00 | 77 | 1017.5 |
| 20260905191730 | 81 | 182 | 0.0 | 1.7 | 0.00 | 0.02 | 0.00 | 73 | 1017.1 |
| 20260905190730 | 82 | 354 | 0.9 | 3.5 | 0.00 | 0.20 | 0.00 | 71 | 1017.0 |
| 20260905190229 | 83 | 84 | 0.9 | 3.5 | 0.00 | 0.24 | 0.00 | 72 | 1017.0 |
| 20260905185730 | 83 | 5 | 0.9 | 2.6 | 0.00 | 0.24 | 0.00 | 70 | 1017.1 |
| 20260905185230 | 84 | 330 | 0.9 | 2.6 | 0.00 | 0.24 | 0.00 | 70 | 1017.0 |
| 20260905184730 | 85 | 0 | 0.9 | 2.6 | 0.00 | 0.24 | 0.00 | 69 | 1016.8 |
| 20260905184230 | 87 | 13 | 0.9 | 2.6 | 0.00 | 0.24 | 0.00 | 68 | 1016.6 |
| 20260905183948 | 88 | 345 | 0.0 | 1.7 | 0.00 | 0.24 | 0.00 | 67 | 1016.7 |
| 20260905182730 | 89 | 351 | 0.0 | 2.6 | 0.00 | 0.24 | 0.00 | 65 | 1016.6 |
| 20260905182230 | 88 | 0 | 0.9 | 2.6 | 0.00 | 0.24 | 0.00 | 64 | 1016.7 |
| 20260905181730 | 87 | 0 | 0.0 | 2.6 | 0.00 | 0.24 | 0.00 | 66 | 1016.8 |
| 20260905181229 | 87 | 20 | 0.0 | 2.6 | 0.00 | 0.24 | 0.00 | 67 | 1016.7 |
| 20260905180729 | 86 | 30 | 0.9 | 1.7 | 0.00 | 0.24 | 0.00 | 67 | 1017.0 |
| 20260905180230 | 86 | 26 | 0.9 | 1.7 | 0.00 | 0.24 | 0.00 | 67 | 1017.0 |
| 20260905175730 | 85 | 0 | 0.0 | 1.7 | 0.00 | 0.24 | 0.00 | 69 | 1017.4 |
| 20260905175230 | 85 | 43 | 0.0 | 0.9 | 0.00 | 0.24 | 0.00 | 71 | 1017.6 |
| 20260905174730 | 85 | 0 | 0.9 | 0.9 | 0.00 | 0.24 | 0.00 | 71 | 1017.7 |
| 20260905174230 | 85 | 19 | 0.0 | 0.9 | 0.00 | 0.24 | 0.00 | 70 | 1017.7 |
| 20260905173730 | 85 | 0 | 0.0 | 0.0 | 0.00 | 0.24 | 0.00 | 70 | 1017.7 |
| 20260905173230 | 85 | 0 | 0.0 | 1.7 | 0.00 | 0.24 | 0.00 | 71 | 1017.7 |
| 20260905172730 | 85 | 0 | 0.0 | 1.7 | 0.00 | 0.24 | 0.00 | 71 | 1017.7 |
| 20260905172230 | 85 | 28 | 0.9 | 2.6 | 0.00 | 0.24 | 0.00 | 69 | 1017.7 |
| 20260905171730 | 85 | 5 | 0.9 | 2.6 | 0.00 | 0.24 | 0.00 | 69 | 1017.9 |
| 20260905171230 | 85 | 7 | 0.9 | 1.7 | 0.00 | 0.24 | 0.00 | 69 | 1017.8 |
| 20260905170730 | 84 | 277 | 0.9 | 1.7 | 0.00 | 0.24 | 0.00 | 70 | 1017.8 |
| 20260905170230 | 84 | 0 | 0.9 | 1.7 | 0.00 | 0.24 | 0.00 | 68 | 1017.9 |
| 20260905165730 | 84 | 3 | 0.9 | 1.7 | 0.00 | 0.24 | 0.00 | 74 | 1017.8 |
| 20260905165230 | 83 | 14 | 0.9 | 1.7 | 0.00 | 0.24 | 0.00 | 75 | 1017.9 |
| 20260905164729 | 83 | 308 | 0.9 | 1.7 | 0.00 | 0.24 | 0.00 | 78 | 1018.1 |
| 20260905164452 | 82 | 27 | 0.9 | 2.6 | 0.00 | 0.24 | 0.00 | 79 | 1018.3 |
| 20260905163448 | 82 | 321 | 1.7 | 1.7 | 0.00 | 0.24 | 0.00 | 79 | 1018.4 |
| 20260905162728 | 81 | 5 | 1.7 | 1.7 | 0.00 | 0.24 | 0.00 | 81 | 1018.3 |
| 20260905162228 | 81 | 18 | 0.9 | 1.7 | 0.00 | 0.24 | 0.00 | 81 | 1018.4 |
| 20260905161728 | 81 | 17 | 0.9 | 1.7 | 0.00 | 0.24 | 0.00 | 81 | 1018.4 |
| 20260905161229 | 80 | 24 | 1.7 | 1.7 | 0.00 | 0.24 | 0.00 | 82 | 1018.4 |
| 20260905160951 | 80 | 357 | 0.9 | 1.7 | 0.00 | 0.24 | 0.00 | 83 | 1018.4 |
| 20260905160230 | 79 | 7 | 0.9 | 1.7 | 0.00 | 0.24 | 0.00 | 84 | 1018.5 |
| 20260905155230 | 78 | 40 | 1.7 | 2.6 | 0.00 | 0.24 | 0.00 | 84 | 1018.5 |
| 20260905154730 | 78 | 11 | 1.7 | 2.6 | 0.00 | 0.24 | 0.00 | 85 | 1018.4 |
| 20260905154229 | 78 | 20 | 0.9 | 1.7 | 0.00 | 0.24 | 0.00 | 86 | 1018.6 |
| 20260905153729 | 77 | 229 | 0.9 | 1.7 | 0.00 | 0.24 | 0.00 | 88 | 1018.6 |
| 20260905153230 | 76 | 46 | 0.9 | 1.7 | 0.00 | 0.24 | 0.00 | 91 | 1018.7 |
| 20260905152729 | 76 | 226 | 1.7 | 1.7 | 0.00 | 0.24 | 0.00 | 91 | 1018.7 |
| 20260905152229 | 75 | 26 | 1.7 | 2.6 | 0.00 | 0.24 | 0.00 | 92 | 1018.9 |
| 20260905151729 | 75 | 24 | 1.7 | 2.6 | 0.00 | 0.24 | 0.00 | 94 | 1018.9 |
| 20260905151229 | 74 | 23 | 1.7 | 1.7 | 0.00 | 0.24 | 0.00 | 95 | 1018.9 |
| 20260905150729 | 74 | 20 | 0.9 | 1.7 | 0.00 | 0.24 | 0.00 | 96 | 1019.0 |
| 20260905150229 | 73 | 6 | 1.7 | 2.6 | 0.00 | 0.24 | 0.00 | 97 | 1019.1 |
| 20260905145729 | 73 | 7 | 1.7 | 2.6 | 0.00 | 0.24 | 0.00 | 98 | 1019.1 |
| 20260905145447 | 72 | 27 | 1.7 | 2.6 | 0.00 | 0.24 | 0.00 | 99 | 1019.1 |
| 20260905144955 | 72 | 32 | 1.7 | 2.6 | 0.00 | 0.24 | 0.00 | 99 | 1019.1 |
| 20260905143947 | 71 | 26 | 1.7 | 3.5 | 0.00 | 0.24 | 0.00 | 100 | 1019.1 |
| 20260905143228 | 71 | 34 | 1.7 | 3.5 | 0.00 | 0.24 | 0.00 | 100 | 1019.1 |
| 20260905142729 | 71 | 25 | 1.7 | 2.6 | 0.00 | 0.24 | 0.00 | 100 | 1019.1 |
| 20260905142229 | 71 | 30 | 1.7 | 2.6 | 0.00 | 0.24 | 0.00 | 100 | 1019.2 |
| 20260905141729 | 70 | 37 | 0.9 | 1.7 | 0.00 | 0.24 | 0.00 | 100 | 1019.2 |
| 20260905141447 | 70 | 26 | 0.9 | 1.7 | 0.00 | 0.24 | 0.00 | 100 | 1019.2 |
| 20260905140729 | 70 | 23 | 0.9 | 2.6 | 0.00 | 0.24 | 0.00 | 100 | 1019.3 |
| 20260905140229 | 70 | 48 | 0.9 | 2.6 | 0.00 | 0.24 | 0.00 | 100 | 1019.4 |
| 20260905135729 | 70 | 62 | 0.9 | 1.7 | 0.00 | 0.24 | 0.00 | 100 | 1019.4 |
| 20260905135229 | 70 | 65 | 0.9 | 2.6 | 0.00 | 0.24 | 0.00 | 100 | 1019.4 |
| 20260905134229 | 69 | 50 | 0.9 | 3.5 | 0.00 | 0.24 | 0.00 | 100 | 1019.6 |
| 20260905133729 | 69 | 140 | 0.9 | 1.7 | 0.00 | 0.24 | 0.00 | 100 | 1019.6 |
| 20260905133229 | 69 | 0 | 0.9 | 1.7 | 0.00 | 0.24 | 0.00 | 100 | 1019.6 |
| 20260905132729 | 69 | 47 | 0.0 | 1.7 | 0.00 | 0.24 | 0.00 | 100 | 1019.6 |
| 20260905132229 | 69 | 0 | 0.9 | 3.5 | 0.00 | 0.24 | 0.00 | 100 | 1019.6 |
| 20260905131728 | 69 | 52 | 0.9 | 3.5 | 0.00 | 0.24 | 0.00 | 100 | 1019.6 |
| 20260905130957 | 69 | 179 | 1.7 | 5.2 | 0.00 | 0.24 | 0.00 | 100 | 1019.6 |
| 20260905130227 | 69 | 21 | 0.9 | 5.2 | 0.00 | 0.24 | 0.00 | 100 | 1019.5 |
| 20260905125727 | 69 | 267 | 0.9 | 3.5 | 0.00 | 0.24 | 0.00 | 100 | 1019.5 |
| 20260905125228 | 69 | 0 | 0.9 | 3.5 | 0.00 | 0.24 | 0.00 | 100 | 1019.5 |
| 20260905124712 | 69 | 242 | 0.9 | 2.6 | 0.00 | 0.24 | 0.00 | 100 | 1019.4 |
| 20260905124212 | 69 | 0 | 0.9 | 3.5 | 0.00 | 0.24 | 0.00 | 100 | 1019.4 |
| 20260905123712 | 69 | 335 | 0.9 | 3.5 | 0.00 | 0.24 | 0.00 | 100 | 1019.5 |
| 20260905123201 | 69 | 193 | 0.9 | 2.6 | 0.00 | 0.24 | 0.00 | 100 | 1019.5 |
| 20260905122701 | 69 | 229 | 0.9 | 1.7 | 0.00 | 0.24 | 0.00 | 100 | 1019.4 |
| 20260905122201 | 68 | 234 | 0.9 | 1.7 | 0.00 | 0.24 | 0.00 | 100 | 1019.4 |
| 20260905121701 | 68 | 18 | 0.9 | 1.7 | 0.00 | 0.24 | 0.00 | 100 | 1019.5 |
| 20260905121201 | 68 | 70 | 0.9 | 1.7 | 0.00 | 0.24 | 0.00 | 100 | 1019.3 |
| 20260905120701 | 68 | 333 | 0.9 | 1.7 | 0.00 | 0.24 | 0.00 | 100 | 1019.3 |
| 20260905120201 | 68 | 352 | 0.9 | 1.7 | 0.00 | 0.24 | 0.00 | 100 | 1019.4 |
| 20260905115701 | 68 | 0 | 0.9 | 1.7 | 0.00 | 0.24 | 0.00 | 100 | 1019.3 |
| 20260905115201 | 68 | 335 | 0.9 | 4.3 | 0.00 | 0.24 | 0.00 | 100 | 1019.1 |
| 20260905114701 | 68 | 224 | 0.9 | 4.3 | 0.00 | 0.24 | 0.00 | 100 | 1019.1 |
| 20260905114421 | 68 | 27 | 0.9 | 2.6 | 0.00 | 0.24 | 0.00 | 100 | 1019.0 |
| 20260905113701 | 68 | 220 | 0.9 | 2.6 | 0.00 | 0.24 | 0.00 | 100 | 1019.0 |
| 20260905113201 | 68 | 337 | 0.9 | 2.6 | 0.00 | 0.24 | 0.00 | 100 | 1019.0 |
| 20260905112701 | 68 | 0 | 0.9 | 2.6 | 0.00 | 0.24 | 0.00 | 100 | 1018.9 |
| 20260905112201 | 68 | 12 | 0.9 | 3.5 | 0.00 | 0.24 | 0.00 | 100 | 1018.9 |
| 20260905111701 | 68 | 54 | 0.9 | 3.5 | 0.00 | 0.24 | 0.00 | 100 | 1018.7 |
| 20260905111201 | 68 | 261 | 0.9 | 1.7 | 0.00 | 0.24 | 0.00 | 100 | 1018.6 |
| 20260905110918 | 68 | 36 | 0.9 | 1.7 | 0.00 | 0.24 | 0.00 | 100 | 1018.6 |
| 20260905110419 | 68 | 165 | 0.9 | 1.7 | 0.00 | 0.24 | 0.00 | 100 | 1018.6 |
| 20260905105701 | 68 | 217 | 0.9 | 5.2 | 0.00 | 0.24 | 0.00 | 100 | 1018.5 |
| 20260905105200 | 68 | 0 | 0.9 | 5.2 | 0.00 | 0.24 | 0.00 | 100 | 1018.4 |
| 20260905104700 | 68 | 0 | 0.0 | 0.9 | 0.00 | 0.24 | 0.00 | 100 | 1018.4 |
| 20260905104203 | 68 | 44 | 0.9 | 2.6 | 0.00 | 0.24 | 0.00 | 100 | 1018.3 |
| 20260905103701 | 68 | 64 | 0.9 | 2.6 | 0.00 | 0.24 | 0.00 | 100 | 1018.3 |
| 20260905103201 | 68 | 65 | 0.9 | 2.6 | 0.00 | 0.24 | 0.00 | 100 | 1018.3 |
| 20260905102701 | 68 | 152 | 0.9 | 2.6 | 0.00 | 0.24 | 0.00 | 100 | 1018.3 |
| 20260905102201 | 68 | 225 | 0.0 | 1.7 | 0.00 | 0.24 | 0.00 | 100 | 1018.3 |
| 20260905101701 | 68 | 12 | 0.0 | 0.9 | 0.00 | 0.24 | 0.00 | 100 | 1018.3 |
| 20260905101201 | 68 | 150 | 0.0 | 0.9 | 0.00 | 0.24 | 0.00 | 99 | 1018.3 |
| 20260905100703 | 68 | 0 | 0.0 | 0.9 | 0.00 | 0.24 | 0.00 | 99 | 1018.2 |
| 20260905095700 | 68 | 45 | 0.0 | 1.7 | 0.00 | 0.24 | 0.00 | 99 | 1018.2 |
| 20260905095200 | 68 | 0 | 0.0 | 0.9 | 0.00 | 0.24 | 0.00 | 99 | 1018.2 |
| 20260905094700 | 68 | 141 | 0.9 | 2.6 | 0.00 | 0.24 | 0.00 | 99 | 1018.2 |
| 20260905094200 | 68 | 90 | 0.9 | 2.6 | 0.00 | 0.24 | 0.00 | 99 | 1018.1 |
| 20260905093701 | 68 | 27 | 0.0 | 0.9 | 0.00 | 0.24 | 0.00 | 99 | 1018.1 |